Regional Weather Roundup
Issued by NWS

Home | Current Version | Previous Version | Text Only | Print | Product List | Glossary Off
Versions: 1 2 3 4 5 6 7 8 9 10 11 12 13 14 15 16 17 18 19 20 21 22 23 24 25 26 27 28 29 30 31 32 33 34 35 36 37 38 39 40 41 42 43 44 45 46 47 48 49 50

000
ASUS43 KLOT 232003
RWRIL

ILLINOIS REGIONAL WEATHER ROUNDUP
NATIONAL WEATHER SERVICE CHICAGO/ROMEOVILLE IL
200 PM CST FRI FEB 23 2018

NOTE: "FAIR" INDICATES FEW OR NO CLOUDS BELOW 12,000 FEET WITH NO
SIGNIFICANT WEATHER AND/OR OBSTRUCTIONS TO VISIBILITY.

* THESE STATIONS ARE NOT UNDER NWS QUALITY CONTROL. THEY ALSO MAY NOT
  REPORT WEATHER SUCH AS PRECIPITATION OR FOG.

ILZ001-002-007-009-015-016-024-232100-
NORTHWEST ILLINOIS

CITY           SKY/WX    TMP DP  RH WIND       PRES   REMARKS
MOLINE         CLOUDY    41  33  73 W13       30.23R
STERLING*      CLOUDY    40  35  83 W14       30.21S
SAVANNA*       FAIR      38  30  71 W10       30.21S WCI  32
$$

ILZ003-004-008-010-011-017-018-232100-
NORTH CENTRAL ILLINOIS

CITY           SKY/WX    TMP DP  RH WIND       PRES   REMARKS
ROCKFORD       CLOUDY    38  32  79 W13       30.20S WCI  30
FREEPORT*      PTSUNNY   38  32  79 W13       30.19F WCI  30
ROCHELLE*      CLOUDY    37  33  88 W12       30.21R WCI  29
DE KALB*       CLOUDY    36  34  94 W13       30.19S WCI  27
PERU*          CLOUDY    36  33  88 W14       30.24R WCI  27
$$

ILZ005-006-012>014-019>023-232100-
NORTHEAST ILLINOIS

CITY           SKY/WX    TMP DP  RH WIND       PRES   REMARKS
CHICAGO-OHARE  CLOUDY    39  35  86 W10       30.17S WCI  32
CHICAGO-MIDWAY CLOUDY    41  37  86 W13       30.18S
AURORA         CLOUDY    37  35  92 W18       30.20R WCI  27
LANSING*       CLOUDY    41  38  92 W15       30.20S
JOLIET*        CLOUDY    40  37  89 W10G17    30.21S
WAUKEGAN       CLOUDY    38  35  89 VRB5G20   30.14S WCI  34
DUPAGE AIRPORT CLOUDY    37  35  92 W14G23    30.18S WCI  28
KANKAKEE*      CLOUDY    40  38  93 W15       30.22S
WHEELING       CLOUDY    40  36  86 W10       30.18R
MORRIS*        CLOUDY    38  35  90 W15       30.21S WCI  29
ROMEOVILLE*    CLOUDY    38  36  91 W12       30.21S WCI  30
NORTHERLY ISL    N/A     40  34  79 S13         N/A
$$

LMZ740>746-232100-
SOUTHERN LAKE MICHIGAN

STATION/POSITION SKY/WX   TEMP    WIND        PRES    VSBY  WAVE
                          AIR SEA DIR/SP/G                  HT/PER
                          (F)     (DEG/KT/KT) (MB)    (MI)  (FT/S)
HARRISON CRIB              40     260/ 13/ 16   N/A
BURNHAM HARBOR             40     260/ 12/ 14   N/A
CALUMET HARBOR             41     240/ 10/ 18 1021.6R
BURNS HARBOR               40     260/ 15/ 18 1022.7R
MICHIGAN CITY              37     220/  9/  9   N/A
$$

ILZ025>027-034>036-040-047-049-050-058-095>099-232100-
WEST-CENTRAL ILLINOIS

CITY           SKY/WX    TMP DP  RH WIND       PRES   REMARKS
QUINCY         CLOUDY    37  34  89 W8        30.27S WCI  31
GALESBURG*     CLOUDY    37  34  87 W10       30.26R WCI  30
MACOMB*        CLOUDY   N/A N/A N/A NW9       30.28S
JACKSONVILLE*  CLOUDY    39  36  89 W7        30.26S WCI  34
PITTSFIELD*    CLOUDY    38  36  92 W6        30.28S WCI  34
$$

ILZ028>032-037-038-041>044-048-051>054-059>061-232100-
CENTRAL ILLINOIS

CITY           SKY/WX    TMP DP  RH WIND       PRES   REMARKS
DECATUR        CLOUDY    44  40  85 W7        30.24F
PEORIA         CLOUDY    37  34  89 NW9       30.26S WCI  30
LACON*         CLOUDY    37  34  89 W8        30.25R WCI  30
LINCOLN*       CLOUDY    40  39  93 W6        30.26R
SPRINGFIELD    CLOUDY    42  38  85 W9        30.26S
TAYLORVILLE    CLOUDY    44  41  89 W7        30.25S
$$

ILZ033-039-045-046-055>057-062-063-232100-
EAST-CENTRAL ILLINOIS

CITY           SKY/WX    TMP DP  RH WIND       PRES   REMARKS
CHAMPAIGN      CLOUDY    44  41  89 W10       30.23F
DANVILLE*      CLOUDY    45  42  88 SW10      30.20F
RANTOUL*       CLOUDY    44  42  93 W10       30.23S
MATTOON        CLOUDY    47  44  90 W8        30.22F
PARIS*         CLOUDY    47  45  93 W12       30.24F
$$

ILZ079-100>102-232100-
SOUTHWEST ILLINOIS

CITY           SKY/WX    TMP DP  RH WIND       PRES   REMARKS
ALTON          CLOUDY    46  45  93 W10       30.26S
BELLEVILLE     CLOUDY    51  43  75 W5        30.24S
CAHOKIA*       CLOUDY    49  42  77 W6        30.26R
SPARTA*        CLOUDY    50  47  90 NW5       30.27S
$$

ILZ064>066-069>071-074>076-080>082-084>086-088>090-092>094-232100-
SOUTH-CENTRAL ILLINOIS

CITY           SKY/WX    TMP DP  RH WIND       PRES   REMARKS
CARBONDALE     CLOUDY    52  48  87 N6        30.25F
CAIRO*         CLOUDY    53  52  95 W8        30.27R
EFFINGHAM*     CLOUDY    51  47  88 SW6       30.26S
MARION         CLOUDY    52  50  93 E6        30.24F
MT. VERNON     CLOUDY    52  47  83 CALM      30.26S
CENTRALIA*     CLOUDY    51  47  84 SW3       30.25R
SALEM*         CLOUDY    52  45  78 NW5       30.25S
METROPOLIS*    CLOUDY    57  53  86 CALM      30.23F
$$

ILZ067-068-072-073-078-083-087-091-232100-
SOUTHEAST ILLINOIS

CITY           SKY/WX    TMP DP  RH WIND       PRES   REMARKS
LAWRENCEVILLE  FAIR      54  48  80 W8        30.26S
FLORA*         PTSUNNY   53  47  78 W6        30.25R
FAIRFIELD*     CLOUDY    51  48  89 MISG      30.26S
HARRISBURG*    CLOUDY    53  49  88 N6        30.26F
ROBINSON*      CLOUDY    52  47  85 NW5       30.25S
CARMI*         PTSUNNY   52  48  86 CALM      30.26F
$$

ABBREVIATIONS USED IN REMARKS
   TC - TEMPERATURE IN CELSIUS
  WCI - WIND CHILL INDEX
   HX - HEAT INDEX
  VSB - VISIBILITY
$$




USA.gov is the U.S. government's official web portal to all federal, state and local government web resources and services.